Погода в Ленске

Россия / Республика Саха (Якутия)     60°42′49″N   114°54′42″E
темп.,
°C
ветер,
м/с
пор.,
м/с
влажн.,
%
обл.,
%
осадки,
мм/ч
давл.,
гПа
погр.,
м
29 ноября, пн
пн2900:00−16ююв2298100 0.1 102442
03:00−17ю1298100 0.3 102363
06:00−17ю1198100 0.2 102232
09:00−17ю1198100 0.4 102126
12:00−15юз1395100 0.1 1020145
15:00−13зюз1494100 0.3 1020410
18:00−15ю1198100 0.1 102011
21:00−16ю1198100 0.2 101911
30 ноября, вт
вт3000:00−17юв1199100 0.1 101911
03:00−16юв0098100 0.3 101817
06:00−15зсз0098100 0.3 101919
09:00−16з1198100 0.4 102013
12:00−14зюз2594100 0.3 1021307
15:00−15зюз4892100 0.4 1021781
18:00−17зюз4991100 0.1 1022553
21:00−19ююз2495100 0.1 1020149
1 декабря, ср
ср100:00−17юв2396100 0.1 1015140
03:00−17юв2397100 0.8 1011211
06:00−17юв1298100 0.6 100982
09:00−16юв1196100 0.9 100778
12:00−14юв1194100 0.5 1005151
15:00−13всв1194100 0.8 1003163
18:00−14ссв1297100 0.4 100573
21:00−16ссз1298100 0.6 100759
2 декабря, чт
чт200:00−18ссз229890 0.1 101166
03:00−19сз2299100 0.3 1015119
06:00−21зсз239999 0.1 1018148
09:00−22з2698100 0.2 1020315
12:00−22зюз3794100 0.1 1022416
15:00−21зюз4994100 0.3 1021600
18:00−22зюз41094100 0.1 1021564
21:00−22з3995100 0.2 1020616
3 декабря, пт
пт300:00−23з3796100 0.1 1021422
03:00−27зюз1110085 0.1 102116
06:00−31зюз1110081 0.0 10229
09:00−33юз1110014 0.0 102312
12:00−27ююз119771 0.0 102250
15:00−23ююв1294100 0.0 101995
18:00−20вюв1296100 0.0 1016100
21:00−18вюв2398100 0.6 1012138